Location: Tom
(33.0437°N, 96.9452°W)
Time: 13:05:43
(UTC-05:00)

N. Korean satellite - Pass Details

Date: 26 December 2018
Orbit: 456 x 510 km, 97.2° (Epoch: 26 March)

Event Time Altitude Azimuth Distance (km) Brightness Sun altitude
Rises 18:10:59 0° 174° (S) 2,457 10.4 -9.0°
Reaches altitude 10° 18:13:01 10° 178° (S) 1,590 9.4 -9.4°
Maximum altitude 18:16:24 62° 260° (W) 520 7.0 -10.1°
Drops below altitude 10° 18:19:50 10° 342° (NNW) 1,619 9.2 -10.8°
Sets 18:21:55 0° 345° (NNW) 2,507 10.1 -11.2°
